Regional Weather Roundup
Issued by NWS

Home | Current Version | Previous Version | Graphics & Text | Print | Product List | Glossary On
Versions: 1 2 3 4 5 6 7 8 9 10 11 12 13 14 15 16 17 18 19 20 21 22 23 24 25 26 27 28 29 30 31 32 33 34 35 36 37 38 39 40 41 42 43 44 45 46 47 48 49 50
000
ASUS43 KOAX 222110
RWRNE

WEATHER ROUNDUP FOR NEBRASKA
NATIONAL WEATHER SERVICE OMAHA NE
400 PM CDT SUN OCT 22 2017

NOTES: SATELLITE DATA IS BEING USED TO AUGMENT CLOUD COVER ABOVE
       12000 FEET.
       "FAIR" INDICATES FEW OR NO CLOUDS BELOW 12,000 FEET WITH NO
       SIGNIFICANT WEATHER AND/OR OBSTRUCTIONS TO VISIBILITY.


NEZ001>004-019>022-054>056-222200-
NEBRASKA PANHANDLE

CITY           SKY/WX    TMP DP  RH WIND       PRES   REMARKS
SCOTTSBLUFF    CLOUDY    65  28  24 W24G38    30.01R
ALLIANCE       CLOUDY    68  28  22 MISG      29.96F
CHADRON        CLOUDY    70  25  18 NW21G33   29.92F
GORDON         FAIR      70  29  21 W16G23    29.92F
KIMBALL        SUNNY     69  27  20 NW18G28   30.05S
SIDNEY         SUNNY     73  28  18 W21G26    30.03F
$$

NEZ057>060-069>072-079>082-222200-
SOUTHWEST NEBRASKA

CITY           SKY/WX    TMP DP  RH WIND       PRES   REMARKS
NORTH PLATTE   SUNNY     70  28  21 W16G26    29.98F
IMPERIAL       CLOUDY    71  26  18 W14       30.02F
LEXINGTON      SUNNY     70  23  17 SW14G22   30.01F
MCCOOK         SUNNY     71  22  15 W20G28    30.02F
OGALLALA       CLOUDY    72  27  19 SW10G21   29.99F
$$

NEZ005>010-023>029-035>040-094-222200-
NORTH CENTRAL NEBRASKA

CITY           SKY/WX    TMP DP  RH WIND       PRES   REMARKS
VALENTINE      SUNNY     71  28  20 W16       29.91F
AINSWORTH      SUNNY     67  32  26 W17G26    29.92F
BROKEN BOW     SUNNY     68  29  23 W18G26    29.98F
O`NEILL        SUNNY     69  32  25 SW16G23   29.94F
ORD            SUNNY     68  28  22 W17G24    29.96F
THEDFORD       SUNNY     70  31  24 SW12G25   29.96F
$$

NEZ041-046>049-061>064-073>077-083>087-222200-
SOUTH CENTRAL NEBRASKA

CITY           SKY/WX    TMP DP  RH WIND       PRES   REMARKS
GRAND ISLAND   SUNNY     69  25  19 W16       30.02F
AURORA         SUNNY     69  25  19 W15       30.02F
HASTINGS       SUNNY     68  23  18 W15G23    30.04F
HEBRON         SUNNY     70  25  18 W14G20    30.05F
HOLDREGE       SUNNY     69  28  22 SW12G21   30.02F
KEARNEY        SUNNY     69  27  20 W13       30.02F
YORK           SUNNY     68  25  19 W10       30.02F
$$

NEZ011>018-030>034-042>045-222200-
NORTHEAST NEBRASKA

CITY           SKY/WX    TMP DP  RH WIND       PRES   REMARKS
NORFOLK        SUNNY     69  23  17 SW15      29.96F
ALBION         SUNNY     68  27  21 SW14G23   29.99S
BLAIR          SUNNY     69  30  23 SW13G18   30.03F
COLUMBUS       SUNNY     69  26  20 SW13G21   30.00F
FREMONT        SUNNY     69  29  22 SW12      30.02F
TEKAMAH        SUNNY     70  23  17 SW12G18   30.00F
WAYNE          SUNNY     67  24  19 SW15      29.96F
$$

NEZ050>053-065>068-078-088>093-222200-
SOUTHEAST NEBRASKA

CITY           SKY/WX    TMP DP  RH WIND       PRES   REMARKS
LINCOLN        SUNNY     71  22  15 SW13      30.04F
OMAHA EPPLEY   MOSUNNY   68  29  23 SW7       30.04F
BEATRICE       SUNNY     70  27  20 SW14G20   30.05F
FALLS CITY     SUNNY     68  32  26 SW5       30.07S
NEBRASKA CITY  SUNNY     68  31  25 W8        30.06S
PLATTSMOUTH    SUNNY     69  31  25 SW9G18    30.05S
$$

NEZ044-045-051>053-067-222200-
OMAHA AREA

CITY           SKY/WX    TMP DP  RH WIND       PRES   REMARKS
OMAHA EPPLEY   MOSUNNY   68  29  23 SW7       30.04F
BLAIR          SUNNY     69  30  23 SW13G18   30.03F
FREMONT        SUNNY     69  29  22 SW12      30.02F
MILLARD        SUNNY     69  32  25 SW6       30.03F
PLATTSMOUTH    SUNNY     69  31  25 SW9G18    30.05S
WAHOO          FAIR      71  23  16 SW12G20   30.02F
$$




USA.gov is the U.S. government's official web portal to all federal, state and local government web resources and services.